Home > Weather > Göttingen > Past weeks

Flag for Germany Past Weather in Göttingen, Lower Saxony, Germany — Yesterday and Last 2 Weeks

Now
68 °F

Partly sunny.


Feels Like: 68 °F
Forecast: 59 / 75 °F
Wind: 5 mph from Northwest

Location: Kassel / Calden

Current Time: Jul 26, 2016 at 10:34:45 AM

Latest Report: Jul 26, 2016 at 9:50 AM


Visibility: N/A

Pressure: 30.15 "Hg

Humidity: 88%

Dew Point: 64 °F

Location of GöttingenLocation

Past Weather in Göttingen — Graph

°F

Göttingen Temperature Yesterday

Maximum temperature yesterday: 79 °F (at 5:20 PM)
Minimum temperature yesterday: 64 °F (at 7:20 AM)
Average temperature yesterday: 74 °F

High & Low Weather Summary for the Past Weeks

 TemperatureHumidityPressure
High90 °F (Jul 20, 4:50 PM)100% (Jul 13, 6:50 PM)30.27 "Hg (Jul 13, 6:50 PM)
Low52 °F (Jul 14, 7:20 AM)31% (Jul 20, 2:50 PM)29.83 "Hg (Jul 11, 9:20 AM)
Average70 °F67%30.07 "Hg
* Reported Jul 11 9:20 AM — Jul 26 9:20 AM, Göttingen, Weather by CustomWeather, © 2016

Note: Actual official high and low records may vary slightly from our data, if they occured in-between our weather recording intervals... More about our weather records

Advertising

Göttingen Weather History for the Previous 24 Hours

Scroll right to see more
 ConditionsComfort  
Time TempWeatherWind HumidityBarometerVisibility
9:20 AM
Tue, Jul 26
68 °FPartly sunny.3 mph88%30.15 "Hg6 mi
8:50 AM66 °FScattered clouds.2 mph100%30.15 "Hg5 mi
8:20 AM64 °FPartly sunny.5 mph100%30.15 "Hg5 mi
7:50 AM66 °FBroken clouds.1 mph100%30.15 "Hg5 mi
7:20 AM63 °FPassing clouds.2 mph100%30.12 "Hg5 mi
9:20 PM
Mon, Jul 25
72 °FSunny.10 mph69%30.09 "Hg10 mi
8:50 PM73 °FSunny.12 mph65%30.09 "Hg10 mi
8:20 PM75 °FPassing clouds.14 mph61%30.09 "HgN/A
7:50 PM77 °FScattered clouds.7 mph61%30.09 "HgN/A
7:20 PM77 °FScattered clouds.6 mph57%30.07 "HgN/A
6:50 PM77 °FScattered clouds.10 mph57%30.07 "HgN/A
6:20 PM79 °FScattered clouds.3 mph58%30.07 "HgN/A
5:50 PM79 °FScattered clouds.5 mph54%30.07 "HgN/A
5:20 PM79 °FPassing clouds.5 mph54%30.07 "HgN/A
4:50 PM77 °FPassing clouds.7 mph61%30.07 "Hg6 mi
4:20 PM77 °FPartly sunny.9 mph61%30.09 "Hg6 mi
3:50 PM77 °FPartly sunny.9 mph65%30.09 "Hg6 mi
3:20 PM75 °FOvercast.9 mph65%30.09 "Hg6 mi
2:50 PM75 °FBroken clouds.7 mph65%30.09 "Hg6 mi
2:20 PM75 °FBroken clouds.12 mph65%30.09 "HgN/A
1:50 PM77 °FScattered clouds.7 mph61%30.09 "Hg6 mi
1:20 PM77 °FScattered clouds.7 mph61%30.09 "Hg6 mi
12:50 PM75 °FScattered clouds.9 mph65%30.09 "Hg6 mi
12:20 PM77 °FScattered clouds.9 mph61%30.09 "HgN/A
11:50 AM75 °FSunny.10 mph69%30.09 "Hg10 mi
11:20 AM75 °FPassing clouds.9 mph61%30.09 "HgN/A
10:50 AM75 °FPassing clouds.7 mph69%30.09 "HgN/A
10:20 AM72 °FSunny.8 mph73%30.09 "Hg10 mi
Weather by CustomWeather, © 2016

See weather overviewHow to use our weather pages